{"data":{"norad_id":63513,"epoch":"2026-09-20T10:06:27.016992Z","epoch_age_seconds":162416,"freshness":"FRESH","line1":"1 63513U 25071W   26263.42114603  .00010883  00000+0  36170-3 0  9992","line2":"2 63513  53.1587 313.9946 0001129  76.0039 284.1087 15.31722527 82580","mean_motion":15.31722527,"eccentricity":0.0001129,"inclination_deg":53.1587,"raan_deg":313.9946,"arg_perigee_deg":76.0039,"mean_anomaly_deg":284.1087,"bstar":0.0003617,"rev_number":8258,"period_min":94.011805311785,"perigee_km":469.89961360244,"apogee_km":471.44607486527,"semimajor_km":6848.8098442339,"source":"CELESTRAK","updated_at":"2026-09-21T09:00:35.017344Z"}}